SCP
0 0 0 0 0 0 0 0 0 0 0 0 0 0 0 0 0 0 0 0 0 0 0 0 0 0 0 0 0 0 0 0 0 0 0 0 0 0 0 0 0 0 0 0 0
0 0 0 0 0 0 0 0 0 0 0 0 0 0 0 0 0 0 0 0 0 0 0 0 0 0 0 0 0 0 0 0 0 0 0 0 0 0 0 0 0 0 0 0 0
0 0 0 0 0 0 0 0 0 0 0 0 0 0 0 0 0 0 0 0 0 0 0 0 0 0 0 0 0 0 0 0 0 0 0 0 0 0 0 0 0 0 0 0 0
0 0 0 0 0 0 0 0 0 0 0 0 0 0 0 0 0 0 0 0 0 0 0 0 0 0 0 0 0 0 0 0 0 0 0 0 0 0 0 0 0 0 0 0 0
0 0 0 0 0 0 0 0 0 0 0 0 0 0 0 0 0 0 0 0 0 0 0 0 0 0 0 0 0 0 0 0 0 0 0 0 0 0 0 0 0 0 0 0 0
0 0 0 0 0 0 0 0 0 0 0 0 0 0 0 0 0 0 0 0 0 0 0 0 0 0 0 0 0 0 0 0 0 0 0 0 0 0 0 0 0 0 0 0 0
0 0 0 0 0 0 0 0 0 0 0 0 0 0 0 0 0 0 0 0 0 0 0 0 0 0 0 0 0 0 0 0 0 0 0 0 0 0 0 0 0 0 0 0 0
0 0 0 0 0 0 0 0 0 0 0 0 0 0 0 0 0 0 0 0 0 0 0 0 0 0 0 0 0 0 0 0 0 0 0 0 0 0 0 0 0 0 0 0 0
0 0 0 0 0 0 0 0 0 0 0 0 0 0 0 0 0 0 0 0 0 0 0 0 0 0 0 0 0 0 0 0 0 0 0 0 0 0 0 0 0 0 0 0 0
0 0 0 0 0 0 0 0 0 0 0 0 0 0 0 0 0 0 0 0 0 0 0 0 0 0 0 0 0 0 0 0 0 0 0 0 0 0 0 0 0 0 0 0 0
0 0 0 0 0 0 0 0 0 0 0 0 0 0 0 0 0 0 0 0 0 0 0 0 0 0 0 0 0 0 0 0 0 0 0 0 0 0 0 0 0 0 0 0 0
0 0 0 0 0 0 0 0 0 0 0 0 0 0 0 0 0 0 0 0 0 0 0 0 0 0 0 0 0 0 0 0 0 0 0 0 0 0 0 0 0 0 0 0 0
0 0 0 0 0 0 0 0 0 0 0 0 0 0 0 0 0 0 0 0 0 0 0 0 0 0 0 0 0 0 0 0 0 0 0 0 0 0 0 0 0 0 0 0 0
0 0 0 0 0 0 0 0 0 0 0 0 0 0 0 0 0 0 0 0 0 0 0 0 0 0 0 0 0 0 0 0 0 0 0 0 0 0 0 0 0 0 0 0 0
0 0 0 0 0 0 0 0 0 0 0 0 0 0 0 0 0 0 0 0 0 0 0 0 0 0 0 0 0 0 0 0 0 0 0 0 0 0 0 0 0 0 0 0 0
0 0 0 0 0 0 0 0 0 0 0 0 0 0 0 0 0 0 0 0 0 0 0 0 0 0 0 0 0 0 0 0 0 0 0 0 0 0 0 0 0 0 0 0 0
0 0 0 0 0 0 0 0 0 0 0 0 0 0 0 0 0 0 0 0 0 0 0 0 0 0 0 0 0 0 0 0 0 0 0 0 0 0 0 0 0 0 0 0 0
0 0 0 0 0 0 0 0 0 0 0 0 0 0 0 0 0 0 0 0 0 0 0 0 0 0 0 0 0 0 0 0 0 0 0 0 0 0 0 0 0 0 0 0 0
0 0 0 0 0 0 0 0 0 0 0 0 0 0 0 0 0 0 0 0 0 0 0 0 0 0 0 0 0 0 0 0 0 0 0 0 0 0 0 0 0 0 0 0 0
0 0 0 0 0 0 0 0 -0 0 0 0 0 0 0 0 0 0 0 0 0 0 0 0 0 0 0 0 0 0 0 0 0 0 0 0 0 0 0 0 0 0 0 0 0
0 0 0 0 0 0 0 0 -0 0 0 0 0 0 0 0 0 0 0 0 0 0 0 0 0 0 0 0 0 0 0 0 0 0 0 0 0 0 0 0 0 0 0 0 0
0 0 0 0 0 0 0 0 0 0 0 0 0 0 0 0 0 0 0 0 0 0 0 0 0 0 0 0 0 0 0 0 0 0 0 0 0 0 0 0 0 0 0 0 0
0 0 0 0 0 0 0 0 0 0 0 0 0 0 0 0 0 0 0 -0 0 0 0 0 0 0 0 0 0 0 0 0 0 0 0 0 0 0 0 0 0 0 0 0 0
0 0 -0 -0 0 0 0 0 0 0 0 0 0 0 0 0 0 0 -0 -0 0 0 0 0 0 0 0 0 0 0 0 0 0 0 0 0 0 0 0 0 0 0 0 0 0
0 0 0 0 0 0 0 0 0 0 0 0 0 0 0 0 0 0 -0 0 0 0 0 0 0 0 0 0 0 0 0 0 0 0 0 0 0 0 0 0 0 0 0 0 0
0 0 -0 0 -0 -0 -0 0 0 0 0 -0 0 0 0 0 0 -0 -0 0 0 0 0 0 0 0 0 0 0 0 0 0 0 0 0 0 0 0 0 0 0 0 0 0 0
0 0 0 0 -0 0 -0 0 0 0 -0 -0 -0 -0 0 0 0 0 -0 -0 0 0 0 0 0 0 0 0 0 0 0 0 0 0 0 0 0 0 0 0 0 0 0 0 0
Wind_Speed_500mb
37 36 36 36 35 34 33 33 33 34 34 34 36 25 18 15 15 21 26 15 27 13 27 22 21 25 23 20 14 11 5 6 8 12 8 7 6 7 10 25 12 15 17 12 65
38 39 39 38 38 37 36 34 32 31 32 33 29 26 18 13 21 35 8 27 28 18 23 23 22 23 15 16 14 8 8 16 9 6 6 6 5 17 12 14 7 14 20 40 65
44 41 39 40 41 40 38 37 35 31 30 29 27 22 15 15 26 11 19 29 27 26 20 20 18 24 12 12 15 12 11 10 7 8 8 7 7 7 16 7 18 32 44 67 69
40 44 44 43 42 41 40 40 38 33 30 28 23 18 14 13 8 7 17 26 24 26 26 22 21 15 9 10 13 4 13 9 8 9 7 8 10 5 21 4 9 24 42 71 73
44 45 43 46 45 43 42 39 39 37 30 26 21 14 12 13 24 13 14 24 26 26 33 27 21 13 10 10 7 7 5 21 14 9 5 9 7 9 17 12 10 32 64 71 72
53 50 48 46 45 47 41 43 40 35 32 26 20 14 15 13 13 14 21 25 25 26 30 31 14 22 9 7 11 9 14 6 12 11 7 7 5 6 13 23 21 47 69 75 72
49 49 48 48 48 45 46 40 40 35 31 29 20 18 24 45 14 16 21 24 24 24 27 28 25 18 6 3 11 9 6 4 8 12 6 6 14 15 32 26 38 52 72 77 73
54 52 50 51 47 47 44 45 42 38 36 31 20 20 21 23 28 35 26 28 27 25 22 25 26 15 6 9 9 7 6 4 5 14 5 15 14 7 29 36 44 56 70 77 76
53 50 42 49 55 50 48 43 45 41 40 27 18 18 20 22 38 33 38 29 24 24 19 22 24 10 10 10 5 6 8 10 11 16 9 12 11 4 7 39 42 58 70 79 76
50 53 50 46 48 55 47 49 42 40 30 13 18 9 34 17 18 34 40 28 25 27 20 18 11 8 5 8 12 12 7 8 12 10 10 12 20 14 6 32 46 53 66 75 79
71 71 58 50 42 44 49 44 34 17 29 31 25 19 12 16 16 32 44 30 24 26 12 10 9 28 33 9 4 8 7 10 7 9 10 16 15 21 14 19 25 41 57 72 77
56 54 69 64 49 46 40 37 36 11 12 40 60 45 39 11 15 30 45 28 16 12 9 5 19 16 8 10 7 5 6 7 5 3 9 3 24 24 16 17 44 53 61 71 70
56 56 58 57 59 54 51 60 53 48 14 25 50 47 60 55 21 40 54 33 9 13 15 13 9 24 17 10 17 9 9 7 3 3 3 10 15 16 10 26 36 57 72 73 76
58 56 56 52 54 54 57 55 51 41 11 12 15 36 58 35 23 44 66 38 8 24 16 11 9 12 16 16 19 20 15 6 6 6 8 2 10 10 8 13 15 43 68 77 76
60 62 57 44 37 36 28 15 27 27 19 12 19 9 27 37 26 40 67 37 18 17 16 18 18 14 11 17 25 13 13 14 7 6 5 2 2 15 2 13 18 22 59 75 83
59 57 48 49 54 54 51 43 22 14 15 7 15 12 13 16 4 13 47 26 17 11 2 10 6 13 15 6 20 20 15 15 9 5 4 12 13 11 10 12 7 11 56 74 77
57 54 46 43 53 40 42 31 16 19 5 9 11 13 10 14 10 11 28 24 17 11 9 4 6 6 11 15 7 7 13 5 4 2 11 3 6 18 9 12 9 16 41 65 74
51 45 46 47 41 34 31 8 21 17 18 0 12 10 15 13 9 11 24 28 15 8 8 15 7 17 11 13 16 12 14 12 16 9 6 5 14 13 8 4 13 7 31 48 61
41 45 49 42 37 39 14 11 9 9 26 11 7 9 7 6 13 9 17 30 29 17 14 10 10 5 3 10 21 12 11 7 12 4 6 8 14 18 10 4 4 13 33 41 52
34 37 44 32 25 28 10 9 7 10 9 8 16 9 17 16 8 10 14 12 19 23 5 11 5 2 4 7 8 10 15 5 5 5 8 7 10 10 10 16 11 13 27 41 48
23 12 13 15 17 19 7 10 11 24 19 14 13 8 9 13 13 14 12 7 23 25 14 9 7 3 9 10 16 6 7 9 8 5 10 3 12 10 11 18 21 17 38 48 54
10 5 6 9 9 4 7 10 5 10 34 10 8 7 12 10 10 11 18 8 13 16 29 8 8 8 10 2 2 5 13 11 9 11 0 5 11 4 9 13 15 23 41 47 53
5 9 14 21 8 10 5 7 13 5 7 3 8 13 8 12 9 13 18 19 26 8 27 13 5 7 6 6 5 9 9 9 9 6 11 10 10 4 6 9 19 33 45 53 57
1 6 8 19 7 1 3 9 7 11 12 7 8 12 6 9 10 13 12 9 15 23 41 28 9 13 19 14 12 10 9 12 12 7 9 11 11 8 7 14 13 35 53 57 60
7 6 6 5 6 9 2 1 9 6 13 2 7 15 12 11 9 9 7 3 7 15 9 21 20 7 2 9 9 9 15 23 24 12 16 9 14 13 17 18 17 42 50 54 56
7 6 5 7 13 11 14 10 19 13 10 6 3 19 13 14 17 16 12 6 7 7 19 10 11 9 3 6 9 8 14 23 26 7 13 5 13 11 7 18 24 41 51 56 57
10 14 8 8 4 3 4 2 8 7 11 13 13 15 9 12 7 10 16 14 3 7 10 15 9 15 9 8 10 7 23 25 21 18 30 23 21 9 8 15 31 48 56 61 57
Wind_Direction_500mb
331 330 329 325 323 323 324 328 329 331 333 336 332 328 309 303 290 276 253 223 196 188 195 200 200 187 180 174 167 140 83 227 224 164 244 176 133 146 141 137 159 174 164 183 169
321 323 325 325 320 317 317 319 322 324 328 328 331 322 304 294 287 276 278 184 176 189 199 206 201 182 180 179 180 146 166 210 210 209 230 179 164 151 155 140 146 152 175 167 172
312 312 315 317 319 317 312 313 315 317 319 322 323 317 299 291 306 287 203 177 181 197 202 207 203 186 188 170 186 185 203 199 230 215 206 162 134 169 138 216 192 184 165 172 176
295 301 305 308 310 311 313 309 308 309 312 316 313 309 288 273 277 328 191 184 185 210 207 191 185 179 167 196 192 175 225 177 194 190 156 172 153 197 197 180 220 207 189 177 182
282 287 291 297 300 303 307 308 305 302 302 306 299 293 273 252 255 251 172 198 211 207 197 187 186 175 186 194 160 215 231 209 211 213 187 164 200 224 233 233 209 185 180 183 185
279 278 281 281 287 292 295 302 305 300 297 298 283 271 247 252 251 231 209 211 209 196 184 187 197 200 222 205 180 223 197 208 219 199 191 190 239 200 235 204 178 178 183 187 190
304 284 280 280 276 281 287 289 294 300 299 294 270 253 250 253 238 212 206 210 209 208 197 197 209 194 199 188 216 147 133 358 226 193 211 163 274 224 225 192 178 186 188 190 193
315 309 281 276 276 277 279 283 285 289 295 294 254 239 248 260 236 216 202 211 213 215 218 211 211 219 210 145 40 104 85 179 262 151 205 140 264 277 225 199 193 192 194 194 196
298 305 314 299 279 278 275 280 279 285 293 285 233 223 257 246 232 218 208 201 202 205 201 191 187 177 143 109 42 338 214 215 309 203 143 179 258 214 204 203 205 198 198 198 199
293 289 287 295 306 278 282 270 279 279 281 236 221 252 246 228 222 208 197 201 190 189 170 180 172 151 113 154 206 197 221 227 214 214 187 210 254 250 226 204 210 204 202 201 201
282 283 288 281 286 296 278 282 278 254 212 198 208 218 320 208 197 191 180 173 167 170 170 189 170 207 197 172 133 157 194 214 231 193 155 229 260 251 224 210 216 211 203 202 203
288 287 282 276 276 280 272 256 239 280 264 241 240 241 243 225 205 195 185 167 166 181 128 78 231 211 148 172 201 159 206 234 317 104 178 280 261 255 201 219 209 207 204 201 202
300 293 287 287 277 279 270 257 262 261 256 234 245 241 244 236 229 195 187 183 153 157 177 180 209 173 166 171 200 205 182 214 257 90 193 332 274 242 234 212 210 214 212 206 203
301 294 293 290 285 270 270 272 249 248 274 218 218 240 226 217 228 222 194 173 177 185 155 225 231 148 187 207 177 221 191 177 149 132 232 61 274 283 237 233 210 203 208 211 206
292 287 289 278 267 239 235 267 237 221 246 211 195 219 203 180 150 205 197 189 170 171 146 220 179 157 173 208 175 212 139 141 101 91 355 218 65 270 39 250 232 210 207 211 210
296 288 288 275 270 270 250 249 203 201 241 247 136 155 122 189 127 116 174 190 167 132 349 194 175 158 179 73 162 152 86 53 60 75 322 220 170 271 205 218 220 195 210 210 207
295 293 285 274 268 279 247 239 218 192 170 208 184 162 160 161 136 146 178 184 170 142 172 117 200 148 120 81 32 109 104 32 354 336 221 169 161 255 237 231 230 209 204 206 205
296 293 277 269 263 252 210 208 247 212 199 288 141 126 173 142 182 155 162 196 228 101 131 160 234 167 172 157 168 177 165 158 197 200 210 121 225 249 218 201 246 247 194 188 196
298 291 285 280 261 246 200 219 206 160 226 179 69 109 217 154 130 135 186 204 201 172 167 141 241 55 28 144 155 193 202 147 102 25 50 211 280 287 205 215 187 171 174 182 189
299 294 287 297 259 231 206 241 175 253 286 183 168 163 184 174 131 148 173 220 212 191 143 194 91 359 136 100 38 151 156 95 9 153 252 260 276 247 207 206 193 183 184 183 186
291 287 293 278 192 213 208 206 234 249 280 244 206 135 185 165 144 180 201 289 216 185 142 133 106 256 144 218 164 131 163 56 118 140 177 184 255 221 233 191 190 194 185 182 182
262 252 281 225 208 200 212 194 197 249 215 277 165 145 158 147 140 187 193 227 1 210 190 161 123 156 182 266 8 144 167 146 143 242 198 144 275 7 299 194 169 180 178 178 177
215 263 261 255 234 207 270 231 214 227 269 298 256 214 138 173 156 188 198 216 179 265 180 177 201 101 47 358 8 199 173 118 118 92 207 149 265 7 13 139 180 173 178 175 175
29 334 238 201 257 23 224 236 234 218 256 246 274 256 184 184 229 191 225 199 178 206 217 189 171 175 193 199 136 166 186 176 144 153 166 226 289 249 205 183 181 186 183 182 185
197 253 283 283 266 220 189 34 200 230 216 207 267 222 176 179 205 217 212 208 212 226 228 181 203 136 348 139 135 164 175 171 200 179 190 222 207 235 208 196 190 187 186 188 192
185 248 235 281 287 221 218 223 224 233 174 203 192 304 211 170 189 186 166 199 204 127 181 153 214 144 98 175 178 166 190 201 211 164 269 207 254 225 146 150 168 184 186 192 194
245 255 280 271 253 156 250 250 233 205 226 225 208 214 269 245 62 128 140 144 251 187 148 158 172 175 179 193 186 265 197 186 204 202 201 205 215 161 177 190 188 185 189 194 196
Wind_Speed_850mb
37 36 36 36 35 34 33 33 33 34 34 34 36 25 18 15 15 21 26 15 27 13 27 22 21 25 23 20 14 11 5 6 8 12 8 7 6 7 10 25 12 15 17 12 65
38 39 39 38 38 37 36 34 32 31 32 33 29 26 18 13 21 35 8 27 28 18 23 23 22 23 15 16 14 8 8 16 9 6 6 6 5 17 12 14 7 14 20 40 65
44 41 39 40 41 40 38 37 35 31 30 29 27 22 15 15 26 11 19 29 27 26 20 20 18 24 12 12 15 12 11 10 7 8 8 7 7 7 16 7 18 32 44 67 69
40 44 44 43 42 41 40 40 38 33 30 28 23 18 14 13 8 7 17 26 24 26 26 22 21 15 9 10 13 4 13 9 8 9 7 8 10 5 21 4 9 24 42 71 73
44 45 43 46 45 43 42 39 39 37 30 26 21 14 12 13 24 13 14 24 26 26 33 27 21 13 10 10 7 7 5 21 14 9 5 9 7 9 17 12 10 32 64 71 72
53 50 48 46 45 47 41 43 40 35 32 26 20 14 15 13 13 14 21 25 25 26 30 31 14 22 9 7 11 9 14 6 12 11 7 7 5 6 13 23 21 47 69 75 72
49 49 48 48 48 45 46 40 40 35 31 29 20 18 24 45 14 16 21 24 24 24 27 28 25 18 6 3 11 9 6 4 8 12 6 6 14 15 32 26 38 52 72 77 73
54 52 50 51 47 47 44 45 42 38 36 31 20 20 21 23 28 35 26 28 27 25 22 25 26 15 6 9 9 7 6 4 5 14 5 15 14 7 29 36 44 56 70 77 76
53 50 42 49 55 50 48 43 45 41 40 27 18 18 20 22 38 33 38 29 24 24 19 22 24 10 10 10 5 6 8 10 11 16 9 12 11 4 7 39 42 58 70 79 76
50 53 50 46 48 55 47 49 42 40 30 13 18 9 34 17 18 34 40 28 25 27 20 18 11 8 5 8 12 12 7 8 12 10 10 12 20 14 6 32 46 53 66 75 79
71 71 58 50 42 44 49 44 34 17 29 31 25 19 12 16 16 32 44 30 24 26 12 10 9 28 33 9 4 8 7 10 7 9 10 16 15 21 14 19 25 41 57 72 77
56 54 69 64 49 46 40 37 36 11 12 40 60 45 39 11 15 30 45 28 16 12 9 5 19 16 8 10 7 5 6 7 5 3 9 3 24 24 16 17 44 53 61 71 70
56 56 58 57 59 54 51 60 53 48 14 25 50 47 60 55 21 40 54 33 9 13 15 13 9 24 17 10 17 9 9 7 3 3 3 10 15 16 10 26 36 57 72 73 76
58 56 56 52 54 54 57 55 51 41 11 12 15 36 58 35 23 44 66 38 8 24 16 11 9 12 16 16 19 20 15 6 6 6 8 2 10 10 8 13 15 43 68 77 76
60 62 57 44 37 36 28 15 27 27 19 12 19 9 27 37 26 40 67 37 18 17 16 18 18 14 11 17 25 13 13 14 7 6 5 2 2 15 2 13 18 22 59 75 83
59 57 48 49 54 54 51 43 22 14 15 7 15 12 13 16 4 13 47 26 17 11 2 10 6 13 15 6 20 20 15 15 9 5 4 12 13 11 10 12 7 11 56 74 77
57 54 46 43 53 40 42 31 16 19 5 9 11 13 10 14 10 11 28 24 17 11 9 4 6 6 11 15 7 7 13 5 4 2 11 3 6 18 9 12 9 16 41 65 74
51 45 46 47 41 34 31 8 21 17 18 0 12 10 15 13 9 11 24 28 15 8 8 15 7 17 11 13 16 12 14 12 16 9 6 5 14 13 8 4 13 7 31 48 61
41 45 49 42 37 39 14 11 9 9 26 11 7 9 7 6 13 9 17 30 29 17 14 10 10 5 3 10 21 12 11 7 12 4 6 8 14 18 10 4 4 13 33 41 52
34 37 44 32 25 28 10 9 7 10 9 8 16 9 17 16 8 10 14 12 19 23 5 11 5 2 4 7 8 10 15 5 5 5 8 7 10 10 10 16 11 13 27 41 48
23 12 13 15 17 19 7 10 11 24 19 14 13 8 9 13 13 14 12 7 23 25 14 9 7 3 9 10 16 6 7 9 8 5 10 3 12 10 11 18 21 17 38 48 54
10 5 6 9 9 4 7 10 5 10 34 10 8 7 12 10 10 11 18 8 13 16 29 8 8 8 10 2 2 5 13 11 9 11 0 5 11 4 9 13 15 23 41 47 53
5 9 14 21 8 10 5 7 13 5 7 3 8 13 8 12 9 13 18 19 26 8 27 13 5 7 6 6 5 9 9 9 9 6 11 10 10 4 6 9 19 33 45 53 57
1 6 8 19 7 1 3 9 7 11 12 7 8 12 6 9 10 13 12 9 15 23 41 28 9 13 19 14 12 10 9 12 12 7 9 11 11 8 7 14 13 35 53 57 60
7 6 6 5 6 9 2 1 9 6 13 2 7 15 12 11 9 9 7 3 7 15 9 21 20 7 2 9 9 9 15 23 24 12 16 9 14 13 17 18 17 42 50 54 56
7 6 5 7 13 11 14 10 19 13 10 6 3 19 13 14 17 16 12 6 7 7 19 10 11 9 3 6 9 8 14 23 26 7 13 5 13 11 7 18 24 41 51 56 57
10 14 8 8 4 3 4 2 8 7 11 13 13 15 9 12 7 10 16 14 3 7 10 15 9 15 9 8 10 7 23 25 21 18 30 23 21 9 8 15 31 48 56 61 57
Wind_Direction_850mb
331 330 329 325 323 323 324 328 329 331 333 336 332 328 309 303 290 276 253 223 196 188 195 200 200 187 180 174 167 140 83 227 224 164 244 176 133 146 141 137 159 174 164 183 169
321 323 325 325 320 317 317 319 322 324 328 328 331 322 304 294 287 276 278 184 176 189 199 206 201 182 180 179 180 146 166 210 210 209 230 179 164 151 155 140 146 152 175 167 172
312 312 315 317 319 317 312 313 315 317 319 322 323 317 299 291 306 287 203 177 181 197 202 207 203 186 188 170 186 185 203 199 230 215 206 162 134 169 138 216 192 184 165 172 176
295 301 305 308 310 311 313 309 308 309 312 316 313 309 288 273 277 328 191 184 185 210 207 191 185 179 167 196 192 175 225 177 194 190 156 172 153 197 197 180 220 207 189 177 182
282 287 291 297 300 303 307 308 305 302 302 306 299 293 273 252 255 251 172 198 211 207 197 187 186 175 186 194 160 215 231 209 211 213 187 164 200 224 233 233 209 185 180 183 185
279 278 281 281 287 292 295 302 305 300 297 298 283 271 247 252 251 231 209 211 209 196 184 187 197 200 222 205 180 223 197 208 219 199 191 190 239 200 235 204 178 178 183 187 190
304 284 280 280 276 281 287 289 294 300 299 294 270 253 250 253 238 212 206 210 209 208 197 197 209 194 199 188 216 147 133 358 226 193 211 163 274 224 225 192 178 186 188 190 193
315 309 281 276 276 277 279 283 285 289 295 294 254 239 248 260 236 216 202 211 213 215 218 211 211 219 210 145 40 104 85 179 262 151 205 140 264 277 225 199 193 192 194 194 196
298 305 314 299 279 278 275 280 279 285 293 285 233 223 257 246 232 218 208 201 202 205 201 191 187 177 143 109 42 338 214 215 309 203 143 179 258 214 204 203 205 198 198 198 199
293 289 287 295 306 278 282 270 279 279 281 236 221 252 246 228 222 208 197 201 190 189 170 180 172 151 113 154 206 197 221 227 214 214 187 210 254 250 226 204 210 204 202 201 201
282 283 288 281 286 296 278 282 278 254 212 198 208 218 320 208 197 191 180 173 167 170 170 189 170 207 197 172 133 157 194 214 231 193 155 229 260 251 224 210 216 211 203 202 203
288 287 282 276 276 280 272 256 239 280 264 241 240 241 243 225 205 195 185 167 166 181 128 78 231 211 148 172 201 159 206 234 317 104 178 280 261 255 201 219 209 207 204 201 202
300 293 287 287 277 279 270 257 262 261 256 234 245 241 244 236 229 195 187 183 153 157 177 180 209 173 166 171 200 205 182 214 257 90 193 332 274 242 234 212 210 214 212 206 203
301 294 293 290 285 270 270 272 249 248 274 218 218 240 226 217 228 222 194 173 177 185 155 225 231 148 187 207 177 221 191 177 149 132 232 61 274 283 237 233 210 203 208 211 206
292 287 289 278 267 239 235 267 237 221 246 211 195 219 203 180 150 205 197 189 170 171 146 220 179 157 173 208 175 212 139 141 101 91 355 218 65 270 39 250 232 210 207 211 210
296 288 288 275 270 270 250 249 203 201 241 247 136 155 122 189 127 116 174 190 167 132 349 194 175 158 179 73 162 152 86 53 60 75 322 220 170 271 205 218 220 195 210 210 207
295 293 285 274 268 279 247 239 218 192 170 208 184 162 160 161 136 146 178 184 170 142 172 117 200 148 120 81 32 109 104 32 354 336 221 169 161 255 237 231 230 209 204 206 205
296 293 277 269 263 252 210 208 247 212 199 288 141 126 173 142 182 155 162 196 228 101 131 160 234 167 172 157 168 177 165 158 197 200 210 121 225 249 218 201 246 247 194 188 196
298 291 285 280 261 246 200 219 206 160 226 179 69 109 217 154 130 135 186 204 201 172 167 141 241 55 28 144 155 193 202 147 102 25 50 211 280 287 205 215 187 171 174 182 189
299 294 287 297 259 231 206 241 175 253 286 183 168 163 184 174 131 148 173 220 212 191 143 194 91 359 136 100 38 151 156 95 9 153 252 260 276 247 207 206 193 183 184 183 186
291 287 293 278 192 213 208 206 234 249 280 244 206 135 185 165 144 180 201 289 216 185 142 133 106 256 144 218 164 131 163 56 118 140 177 184 255 221 233 191 190 194 185 182 182
262 252 281 225 208 200 212 194 197 249 215 277 165 145 158 147 140 187 193 227 1 210 190 161 123 156 182 266 8 144 167 146 143 242 198 144 275 7 299 194 169 180 178 178 177
215 263 261 255 234 207 270 231 214 227 269 298 256 214 138 173 156 188 198 216 179 265 180 177 201 101 47 358 8 199 173 118 118 92 207 149 265 7 13 139 180 173 178 175 175
29 334 238 201 257 23 224 236 234 218 256 246 274 256 184 184 229 191 225 199 178 206 217 189 171 175 193 199 136 166 186 176 144 153 166 226 289 249 205 183 181 186 183 182 185
197 253 283 283 266 220 189 34 200 230 216 207 267 222 176 179 205 217 212 208 212 226 228 181 203 136 348 139 135 164 175 171 200 179 190 222 207 235 208 196 190 187 186 188 192
185 248 235 281 287 221 218 223 224 233 174 203 192 304 211 170 189 186 166 199 204 127 181 153 214 144 98 175 178 166 190 201 211 164 269 207 254 225 146 150 168 184 186 192 194
245 255 280 271 253 156 250 250 233 205 226 225 208 214 269 245 62 128 140 144 251 187 148 158 172 175 179 193 186 265 197 186 204 202 201 205 215 161 177 190 188 185 189 194 196